Year,Month,Day,Hour,Minute,Value (Times are PST for temperature in C)
2015,06,27,00,00,21.30
2015,06,27,00,01,21.20
2015,06,27,00,02,21.20
2015,06,27,00,03,21.20
2015,06,27,00,04,21.20
2015,06,27,00,05,21.10
2015,06,27,00,06,21.10
2015,06,27,00,07,21.10
2015,06,27,00,08,21.00
2015,06,27,00,09,21.00
2015,06,27,00,10,21.00
2015,06,27,00,11,20.90
2015,06,27,00,12,20.90
2015,06,27,00,13,20.90
2015,06,27,00,14,20.90
2015,06,27,00,15,20.80
2015,06,27,00,16,20.80
2015,06,27,00,17,20.80
2015,06,27,00,18,20.80
2015,06,27,00,19,20.70
2015,06,27,00,20,20.70
2015,06,27,00,21,20.70
2015,06,27,00,22,20.60
2015,06,27,00,23,20.60
2015,06,27,00,24,20.60
2015,06,27,00,25,20.50
2015,06,27,00,26,20.50
2015,06,27,00,27,20.50
2015,06,27,00,28,20.50
2015,06,27,00,29,20.40
2015,06,27,00,30,20.40
2015,06,27,00,31,20.40
2015,06,27,00,32,20.30
2015,06,27,00,33,20.30
2015,06,27,00,34,20.30
2015,06,27,00,35,20.30
2015,06,27,00,36,20.30
2015,06,27,00,37,20.20
2015,06,27,00,38,20.20
2015,06,27,00,39,20.20
2015,06,27,00,40,20.20
2015,06,27,00,41,20.20
2015,06,27,00,42,20.10
2015,06,27,00,43,20.10
2015,06,27,00,44,20.10
2015,06,27,00,45,20.00
2015,06,27,00,46,20.00
2015,06,27,00,47,20.00
2015,06,27,00,48,19.90
2015,06,27,00,49,19.90
2015,06,27,00,50,19.90
2015,06,27,00,51,19.80
2015,06,27,00,52,19.80
2015,06,27,00,53,19.80
2015,06,27,00,54,19.80
2015,06,27,00,55,19.80
2015,06,27,00,56,19.70
2015,06,27,00,57,19.70
2015,06,27,00,58,19.70
2015,06,27,00,59,19.60
2015,06,27,01,00,19.60
2015,06,27,01,01,19.60
2015,06,27,01,02,19.60
2015,06,27,01,03,19.60
2015,06,27,01,04,19.60
2015,06,27,01,05,19.50
2015,06,27,01,06,19.50
2015,06,27,01,07,19.40
2015,06,27,01,08,19.40
2015,06,27,01,09,19.40
2015,06,27,01,10,19.40
2015,06,27,01,11,19.40
2015,06,27,01,12,19.40
2015,06,27,01,13,19.40
2015,06,27,01,14,19.30
2015,06,27,01,15,19.30
2015,06,27,01,16,19.30
2015,06,27,01,17,19.30
2015,06,27,01,18,19.30
2015,06,27,01,19,19.30
2015,06,27,01,20,19.30
2015,06,27,01,21,19.30
2015,06,27,01,22,19.20
2015,06,27,01,23,19.20
2015,06,27,01,24,19.20
2015,06,27,01,25,19.20
2015,06,27,01,26,19.20
2015,06,27,01,27,19.20
2015,06,27,01,28,19.10
2015,06,27,01,29,19.10
2015,06,27,01,30,19.10
2015,06,27,01,31,19.10
2015,06,27,01,32,19.10
2015,06,27,01,33,19.10
2015,06,27,01,34,19.00
2015,06,27,01,35,19.00
2015,06,27,01,36,19.00
2015,06,27,01,37,19.00
2015,06,27,01,38,19.00
2015,06,27,01,39,18.90
2015,06,27,01,40,18.90
2015,06,27,01,41,18.90
2015,06,27,01,42,18.90
2015,06,27,01,43,18.90
2015,06,27,01,44,18.90
2015,06,27,01,45,18.90
2015,06,27,01,46,18.90
2015,06,27,01,47,18.80
2015,06,27,01,48,18.80
2015,06,27,01,49,18.80
2015,06,27,01,50,18.80
2015,06,27,01,51,18.80
2015,06,27,01,52,18.80
2015,06,27,01,53,18.80
2015,06,27,01,54,18.80
2015,06,27,01,55,18.80
2015,06,27,01,56,18.80
2015,06,27,01,57,18.70
2015,06,27,01,58,18.70
2015,06,27,01,59,18.70
2015,06,27,02,00,18.70
2015,06,27,02,01,18.70
2015,06,27,02,02,18.70
2015,06,27,02,03,18.70
2015,06,27,02,04,18.70
2015,06,27,02,05,18.70
2015,06,27,02,06,18.70
2015,06,27,02,07,18.70
2015,06,27,02,08,18.70
2015,06,27,02,09,18.60
2015,06,27,02,10,18.60
2015,06,27,02,11,18.60
2015,06,27,02,12,18.60
2015,06,27,02,13,18.60
2015,06,27,02,14,18.60
2015,06,27,02,15,18.60
2015,06,27,02,16,18.60
2015,06,27,02,17,18.60
2015,06,27,02,18,18.60
2015,06,27,02,19,18.60
2015,06,27,02,20,18.50
2015,06,27,02,21,18.50
2015,06,27,02,22,18.50
2015,06,27,02,23,18.50
2015,06,27,02,24,18.50
2015,06,27,02,25,18.50
2015,06,27,02,26,18.50
2015,06,27,02,27,18.40
2015,06,27,02,28,18.40
2015,06,27,02,29,18.40
2015,06,27,02,30,18.40
2015,06,27,02,31,18.40
2015,06,27,02,32,18.40
2015,06,27,02,33,18.40
2015,06,27,02,34,18.40
2015,06,27,02,35,18.40
2015,06,27,02,36,18.40
2015,06,27,02,37,18.40
2015,06,27,02,38,18.40
2015,06,27,02,39,18.40
2015,06,27,02,40,18.40
2015,06,27,02,41,18.30
2015,06,27,02,42,18.30
2015,06,27,02,43,18.30
2015,06,27,02,44,18.30
2015,06,27,02,45,18.30
2015,06,27,02,46,18.30
2015,06,27,02,47,18.30
2015,06,27,02,48,18.20
2015,06,27,02,49,18.20
2015,06,27,02,50,18.20
2015,06,27,02,51,18.20
2015,06,27,02,52,18.20
2015,06,27,02,53,18.20
2015,06,27,02,54,18.20
2015,06,27,02,55,18.20
2015,06,27,02,56,18.20
2015,06,27,02,57,18.10
2015,06,27,02,58,18.10
2015,06,27,02,59,18.10
2015,06,27,03,00,18.10
2015,06,27,03,01,18.10
2015,06,27,03,02,18.10
2015,06,27,03,03,18.10
2015,06,27,03,04,18.10
2015,06,27,03,05,18.10
2015,06,27,03,06,18.00
2015,06,27,03,07,18.00
2015,06,27,03,08,18.00
2015,06,27,03,09,18.00
2015,06,27,03,10,18.00
2015,06,27,03,11,18.00
2015,06,27,03,12,18.00
2015,06,27,03,13,17.90
2015,06,27,03,14,17.90
2015,06,27,03,15,17.90
2015,06,27,03,16,17.90
2015,06,27,03,17,17.90
2015,06,27,03,18,17.90
2015,06,27,03,19,17.90
2015,06,27,03,20,17.90
2015,06,27,03,21,17.90
2015,06,27,03,22,17.90
2015,06,27,03,23,17.80
2015,06,27,03,24,17.80
2015,06,27,03,25,17.80
2015,06,27,03,26,17.80
2015,06,27,03,27,17.80
2015,06,27,03,28,17.80
2015,06,27,03,29,17.80
2015,06,27,03,30,17.80
2015,06,27,03,31,17.80
2015,06,27,03,32,17.80
2015,06,27,03,33,17.80
2015,06,27,03,34,17.80
2015,06,27,03,35,17.80
2015,06,27,03,36,17.80
2015,06,27,03,37,17.80
2015,06,27,03,38,17.80
2015,06,27,03,39,17.80
2015,06,27,03,40,17.80
2015,06,27,03,41,17.70
2015,06,27,03,42,17.70
2015,06,27,03,43,17.70
2015,06,27,03,44,17.70
2015,06,27,03,45,17.70
2015,06,27,03,46,17.70
2015,06,27,03,47,17.70
2015,06,27,03,48,17.70
2015,06,27,03,49,17.70
2015,06,27,03,50,17.60
2015,06,27,03,51,17.60
2015,06,27,03,52,17.60
2015,06,27,03,53,17.60
2015,06,27,03,54,17.60
2015,06,27,03,55,17.60
2015,06,27,03,56,17.60
2015,06,27,03,57,17.60
2015,06,27,03,58,17.60
2015,06,27,03,59,17.60
2015,06,27,04,00,17.50
2015,06,27,04,01,17.50
2015,06,27,04,02,17.50
2015,06,27,04,03,17.50
2015,06,27,04,04,17.50
2015,06,27,04,05,17.50
2015,06,27,04,06,17.50
2015,06,27,04,07,17.50
2015,06,27,04,08,17.50
2015,06,27,04,09,17.50
2015,06,27,04,10,17.40
2015,06,27,04,11,17.40
2015,06,27,04,12,17.40
2015,06,27,04,13,17.40
2015,06,27,04,14,17.40
2015,06,27,04,15,17.40
2015,06,27,04,16,17.40
2015,06,27,04,17,17.40
2015,06,27,04,18,17.40
2015,06,27,04,19,17.40
2015,06,27,04,20,17.40
2015,06,27,04,21,17.30
2015,06,27,04,22,17.30
2015,06,27,04,23,17.30
2015,06,27,04,24,17.30
2015,06,27,04,25,17.30
2015,06,27,04,26,17.30
2015,06,27,04,27,17.30
2015,06,27,04,28,17.30
2015,06,27,04,29,17.30
2015,06,27,04,30,17.30
2015,06,27,04,31,17.20
2015,06,27,04,32,17.20
2015,06,27,04,33,17.20
2015,06,27,04,34,17.20
2015,06,27,04,35,17.20
2015,06,27,04,36,17.20
2015,06,27,04,37,17.20
2015,06,27,04,38,17.20
2015,06,27,04,39,17.20
2015,06,27,04,40,17.20
2015,06,27,04,41,17.20
2015,06,27,04,42,17.10
2015,06,27,04,43,17.10
2015,06,27,04,44,17.10
2015,06,27,04,45,17.10
2015,06,27,04,46,17.10
2015,06,27,04,47,17.10
2015,06,27,04,48,17.10
2015,06,27,04,49,17.10
2015,06,27,04,50,17.10
2015,06,27,04,51,17.10
2015,06,27,04,52,17.10
2015,06,27,04,53,17.10
2015,06,27,04,54,17.10
2015,06,27,04,55,17.10
2015,06,27,04,56,17.00
2015,06,27,04,57,17.00
2015,06,27,04,58,17.00
2015,06,27,04,59,17.00
2015,06,27,05,00,17.00
2015,06,27,05,01,17.00
2015,06,27,05,02,16.90
2015,06,27,05,03,16.90
2015,06,27,05,04,16.90
2015,06,27,05,05,16.90
2015,06,27,05,06,16.90
2015,06,27,05,07,16.90
2015,06,27,05,08,16.90
2015,06,27,05,09,16.90
2015,06,27,05,10,16.90
2015,06,27,05,11,16.90
2015,06,27,05,12,16.90
2015,06,27,05,13,16.90
2015,06,27,05,14,16.80
2015,06,27,05,15,16.80
2015,06,27,05,16,16.80
2015,06,27,05,17,16.80
2015,06,27,05,18,16.80
2015,06,27,05,19,16.80
2015,06,27,05,20,16.80
2015,06,27,05,21,16.80
2015,06,27,05,22,16.70
2015,06,27,05,23,16.70
2015,06,27,05,24,16.70
2015,06,27,05,25,16.70
2015,06,27,05,26,16.70
2015,06,27,05,27,16.70
2015,06,27,05,28,16.70
2015,06,27,05,29,16.70
2015,06,27,05,30,16.70
2015,06,27,05,31,16.70
2015,06,27,05,32,16.70
2015,06,27,05,33,16.70
2015,06,27,05,34,16.70
2015,06,27,05,35,16.70
2015,06,27,05,36,16.60
2015,06,27,05,37,16.60
2015,06,27,05,38,16.60
2015,06,27,05,39,16.60
2015,06,27,05,40,16.60
2015,06,27,05,41,16.60
2015,06,27,05,42,16.60
2015,06,27,05,43,16.60
2015,06,27,05,44,16.60
2015,06,27,05,45,16.60
2015,06,27,05,46,16.60
2015,06,27,05,47,16.60
2015,06,27,05,48,16.60
2015,06,27,05,49,16.60
2015,06,27,05,50,16.60
2015,06,27,05,51,16.60
2015,06,27,05,52,16.60
2015,06,27,05,53,16.60
2015,06,27,05,54,16.60
2015,06,27,05,55,16.60
2015,06,27,05,56,16.60
2015,06,27,05,57,16.60
2015,06,27,05,58,16.60
2015,06,27,05,59,16.60
2015,06,27,06,00,16.60
2015,06,27,06,01,16.60
2015,06,27,06,02,16.60
2015,06,27,06,03,16.60
2015,06,27,06,04,16.60
2015,06,27,06,05,16.60
2015,06,27,06,06,16.60
2015,06,27,06,07,16.60
2015,06,27,06,08,16.60
2015,06,27,06,09,16.70
2015,06,27,06,10,16.70
2015,06,27,06,11,16.70
2015,06,27,06,12,16.70
2015,06,27,06,13,16.70
2015,06,27,06,14,16.70
2015,06,27,06,15,16.70
2015,06,27,06,16,16.70
2015,06,27,06,17,16.70
2015,06,27,06,18,16.70
2015,06,27,06,19,16.70
2015,06,27,06,20,16.70
2015,06,27,06,21,16.70
2015,06,27,06,22,16.70
2015,06,27,06,23,16.70
2015,06,27,06,24,16.70
2015,06,27,06,25,16.70
2015,06,27,06,26,16.80
2015,06,27,06,27,16.80
2015,06,27,06,28,16.80
2015,06,27,06,29,16.80
2015,06,27,06,30,16.80
2015,06,27,06,31,16.80
2015,06,27,06,32,16.80
2015,06,27,06,33,16.80
2015,06,27,06,34,16.90
2015,06,27,06,35,16.90
2015,06,27,06,36,16.90
2015,06,27,06,37,16.90
2015,06,27,06,38,17.00
2015,06,27,06,39,17.00
2015,06,27,06,40,17.00
2015,06,27,06,41,17.00
2015,06,27,06,42,17.00
2015,06,27,06,43,17.10
2015,06,27,06,44,17.10
2015,06,27,06,45,17.10
2015,06,27,06,46,17.10
2015,06,27,06,47,17.10
2015,06,27,06,48,17.20
2015,06,27,06,49,17.20
2015,06,27,06,50,17.20
2015,06,27,06,51,17.20
2015,06,27,06,52,17.20
2015,06,27,06,53,17.20
2015,06,27,06,54,17.20
2015,06,27,06,55,17.20
2015,06,27,06,56,17.10
2015,06,27,06,57,17.10
2015,06,27,06,58,17.10
2015,06,27,06,59,17.10
2015,06,27,07,00,17.10
2015,06,27,07,01,17.10
2015,06,27,07,02,17.10
2015,06,27,07,03,17.10
2015,06,27,07,04,17.20
2015,06,27,07,05,17.20
2015,06,27,07,06,17.20
2015,06,27,07,07,17.20
2015,06,27,07,08,17.20
2015,06,27,07,09,17.20
2015,06,27,07,10,17.20
2015,06,27,07,11,17.30
2015,06,27,07,12,17.30
2015,06,27,07,13,17.30
2015,06,27,07,14,17.30
2015,06,27,07,15,17.30
2015,06,27,07,16,17.40
2015,06,27,07,17,17.40
2015,06,27,07,18,17.40
2015,06,27,07,19,17.40
2015,06,27,07,20,17.40
2015,06,27,07,21,17.50
2015,06,27,07,22,17.50
2015,06,27,07,23,17.60
2015,06,27,07,24,17.60
2015,06,27,07,25,17.60
2015,06,27,07,26,17.60
2015,06,27,07,27,17.60
2015,06,27,07,28,17.60
2015,06,27,07,29,17.60
2015,06,27,07,30,17.70
2015,06,27,07,31,17.70
2015,06,27,07,32,17.70
2015,06,27,07,33,17.70
2015,06,27,07,34,17.70
2015,06,27,07,35,17.70
2015,06,27,07,36,17.70
2015,06,27,07,37,17.70
2015,06,27,07,38,17.80
2015,06,27,07,39,17.80
2015,06,27,07,40,17.80
2015,06,27,07,41,17.80
2015,06,27,07,42,17.80
2015,06,27,07,43,17.80
2015,06,27,07,44,17.80
2015,06,27,07,45,17.80
2015,06,27,07,46,17.80
2015,06,27,07,47,17.80
2015,06,27,07,48,17.90
2015,06,27,07,49,17.90
2015,06,27,07,50,17.90
2015,06,27,07,51,17.90
2015,06,27,07,52,17.90
2015,06,27,07,53,17.90
2015,06,27,07,54,17.90
2015,06,27,07,55,17.90
2015,06,27,07,56,18.00
2015,06,27,07,57,18.00
2015,06,27,07,58,18.00
2015,06,27,07,59,18.10
2015,06,27,08,00,18.10
2015,06,27,08,01,18.20
2015,06,27,08,02,18.20
2015,06,27,08,03,18.20
2015,06,27,08,04,18.20
2015,06,27,08,05,18.30
2015,06,27,08,06,18.30
2015,06,27,08,07,18.30
2015,06,27,08,08,18.30
2015,06,27,08,09,18.30
2015,06,27,08,10,18.30
2015,06,27,08,11,18.30
2015,06,27,08,12,18.40
2015,06,27,08,13,18.40
2015,06,27,08,14,18.50
2015,06,27,08,15,18.50
2015,06,27,08,16,18.60
2015,06,27,08,17,18.60
2015,06,27,08,18,18.60
2015,06,27,08,19,18.50
2015,06,27,08,20,18.50
2015,06,27,08,21,18.50
2015,06,27,08,22,18.50
2015,06,27,08,23,18.50
2015,06,27,08,24,18.50
2015,06,27,08,25,18.50
2015,06,27,08,26,18.60
2015,06,27,08,27,18.60
2015,06,27,08,28,18.60
2015,06,27,08,29,18.60
2015,06,27,08,30,18.70
2015,06,27,08,31,18.70
2015,06,27,08,32,18.70
2015,06,27,08,33,18.70
2015,06,27,08,34,18.80
2015,06,27,08,35,18.80
2015,06,27,08,36,18.90
2015,06,27,08,37,18.90
2015,06,27,08,38,19.00
2015,06,27,08,39,19.00
2015,06,27,08,40,19.00
2015,06,27,08,41,19.00
2015,06,27,08,42,19.10
2015,06,27,08,43,19.10
2015,06,27,08,44,19.10
2015,06,27,08,45,19.10
2015,06,27,08,46,19.20
2015,06,27,08,47,19.20
2015,06,27,08,48,19.30
2015,06,27,08,49,19.30
2015,06,27,08,50,19.30
2015,06,27,08,51,19.30
2015,06,27,08,52,19.30
2015,06,27,08,53,19.30
2015,06,27,08,54,19.30
2015,06,27,08,55,19.30
2015,06,27,08,56,19.30
2015,06,27,08,57,19.30
2015,06,27,08,58,19.30
2015,06,27,08,59,19.30
2015,06,27,09,00,19.40
2015,06,27,09,01,19.40
2015,06,27,09,02,19.50
2015,06,27,09,03,19.50
2015,06,27,09,04,19.60
2015,06,27,09,05,19.60
2015,06,27,09,06,19.70
2015,06,27,09,07,19.70
2015,06,27,09,08,19.70
2015,06,27,09,09,19.70
2015,06,27,09,10,19.70
2015,06,27,09,11,19.70
2015,06,27,09,12,19.70
2015,06,27,09,13,19.80
2015,06,27,09,14,19.80
2015,06,27,09,15,19.80
2015,06,27,09,16,19.90
2015,06,27,09,17,20.00
2015,06,27,09,18,20.10
2015,06,27,09,19,20.20
2015,06,27,09,20,20.30
2015,06,27,09,21,20.30
2015,06,27,09,22,20.30
2015,06,27,09,23,20.40
2015,06,27,09,24,20.40
2015,06,27,09,25,20.30
2015,06,27,09,26,20.30
2015,06,27,09,27,20.30
2015,06,27,09,28,20.30
2015,06,27,09,29,20.30
2015,06,27,09,30,20.30
2015,06,27,09,31,20.40
2015,06,27,09,32,20.40
2015,06,27,09,33,20.40
2015,06,27,09,34,20.50
2015,06,27,09,35,20.50
2015,06,27,09,36,20.50
2015,06,27,09,37,20.50
2015,06,27,09,38,20.50
2015,06,27,09,39,20.60
2015,06,27,09,40,20.60
2015,06,27,09,41,20.60
2015,06,27,09,42,20.50
2015,06,27,09,43,20.50
2015,06,27,09,44,20.40
2015,06,27,09,45,20.40
2015,06,27,09,46,20.40
2015,06,27,09,47,20.30
2015,06,27,09,48,20.30
2015,06,27,09,49,20.30
2015,06,27,09,50,20.30
2015,06,27,09,51,20.30
2015,06,27,09,52,20.30
2015,06,27,09,53,20.30
2015,06,27,09,54,20.30
2015,06,27,09,55,20.30
2015,06,27,09,56,20.40
2015,06,27,09,57,20.50
2015,06,27,09,58,20.50
2015,06,27,09,59,20.60
2015,06,27,10,00,20.70
2015,06,27,10,01,20.70
2015,06,27,10,02,20.80
2015,06,27,10,03,20.80
2015,06,27,10,04,20.80
2015,06,27,10,05,20.90
2015,06,27,10,06,21.00
2015,06,27,10,07,21.10
2015,06,27,10,08,21.20
2015,06,27,10,09,21.30
2015,06,27,10,10,21.30
2015,06,27,10,11,21.40
2015,06,27,10,12,21.30
2015,06,27,10,13,21.30
2015,06,27,10,14,21.30
2015,06,27,10,15,21.30
2015,06,27,10,16,21.30
2015,06,27,10,17,21.30
2015,06,27,10,18,21.20
2015,06,27,10,19,21.20
2015,06,27,10,20,21.20
2015,06,27,10,21,21.20
2015,06,27,10,22,21.10
2015,06,27,10,23,21.10
2015,06,27,10,24,21.00
2015,06,27,10,25,21.10
2015,06,27,10,26,21.10
2015,06,27,10,27,21.20
2015,06,27,10,28,21.20
2015,06,27,10,29,21.20
2015,06,27,10,30,21.20
2015,06,27,10,31,21.20
2015,06,27,10,32,21.20
2015,06,27,10,33,21.30
2015,06,27,10,34,21.30
2015,06,27,10,35,21.40
2015,06,27,10,36,21.40
2015,06,27,10,37,21.40
2015,06,27,10,38,21.30
2015,06,27,10,39,21.30
2015,06,27,10,40,21.40
2015,06,27,10,41,21.40
2015,06,27,10,42,21.40
2015,06,27,10,43,21.50
2015,06,27,10,44,21.60
2015,06,27,10,45,21.70
2015,06,27,10,46,21.80
2015,06,27,10,47,21.90
2015,06,27,10,48,21.90
2015,06,27,10,49,22.00
2015,06,27,10,50,22.10
2015,06,27,10,51,22.10
2015,06,27,10,52,22.10
2015,06,27,10,53,22.10
2015,06,27,10,54,22.10
2015,06,27,10,55,22.10
2015,06,27,10,56,22.10
2015,06,27,10,57,22.10
2015,06,27,10,58,22.10
2015,06,27,10,59,22.10
2015,06,27,11,00,22.00
2015,06,27,11,01,22.00
2015,06,27,11,02,22.00
2015,06,27,11,03,22.00
2015,06,27,11,04,22.00
2015,06,27,11,05,22.00
2015,06,27,11,06,22.10
2015,06,27,11,07,22.20
2015,06,27,11,08,22.20
2015,06,27,11,09,22.30
2015,06,27,11,10,22.30
2015,06,27,11,11,22.30
2015,06,27,11,12,22.30
2015,06,27,11,13,22.30
2015,06,27,11,14,22.40
2015,06,27,11,15,22.40
2015,06,27,11,16,22.40
2015,06,27,11,17,22.50
2015,06,27,11,18,22.50
2015,06,27,11,19,22.60
2015,06,27,11,20,22.60
2015,06,27,11,21,22.60
2015,06,27,11,22,22.70
2015,06,27,11,23,22.70
2015,06,27,11,24,22.80
2015,06,27,11,25,22.90
2015,06,27,11,26,23.00
2015,06,27,11,27,23.00
2015,06,27,11,28,23.10
2015,06,27,11,29,23.20
2015,06,27,11,30,23.20
2015,06,27,11,31,23.30
2015,06,27,11,32,23.40
2015,06,27,11,33,23.40
2015,06,27,11,34,23.50
2015,06,27,11,35,23.60
2015,06,27,11,36,23.60
2015,06,27,11,37,23.60
2015,06,27,11,38,23.60
2015,06,27,11,39,23.60
2015,06,27,11,40,23.50
2015,06,27,11,41,23.50
2015,06,27,11,42,23.40
2015,06,27,11,43,23.40
2015,06,27,11,44,23.40
2015,06,27,11,45,23.40
2015,06,27,11,46,23.50
2015,06,27,11,47,23.60
2015,06,27,11,48,23.70
2015,06,27,11,49,23.80
2015,06,27,11,50,23.90
2015,06,27,11,51,23.90
2015,06,27,11,52,24.00
2015,06,27,11,53,24.10
2015,06,27,11,54,24.20
2015,06,27,11,55,24.30
2015,06,27,11,56,24.40
2015,06,27,11,57,24.50
2015,06,27,11,58,24.60
2015,06,27,11,59,24.70
2015,06,27,12,00,24.80
2015,06,27,12,01,24.80
2015,06,27,12,02,24.70
2015,06,27,12,03,24.60
2015,06,27,12,04,24.60
2015,06,27,12,05,24.60
2015,06,27,12,06,24.70
2015,06,27,12,07,24.70
2015,06,27,12,08,24.80
2015,06,27,12,09,24.80
2015,06,27,12,10,24.80
2015,06,27,12,11,24.90
2015,06,27,12,12,24.90
2015,06,27,12,13,24.90
2015,06,27,12,14,24.80
2015,06,27,12,15,24.70
2015,06,27,12,16,24.60
2015,06,27,12,17,24.60
2015,06,27,12,18,24.60
2015,06,27,12,19,24.70
2015,06,27,12,20,24.70
2015,06,27,12,21,24.70
2015,06,27,12,22,24.80
2015,06,27,12,23,24.80
2015,06,27,12,24,24.90
2015,06,27,12,25,24.90
2015,06,27,12,26,24.90
2015,06,27,12,27,25.00
2015,06,27,12,28,25.10
2015,06,27,12,29,25.20
2015,06,27,12,30,25.30
2015,06,27,12,31,25.40
2015,06,27,12,32,25.50
2015,06,27,12,33,25.60
2015,06,27,12,34,25.60
2015,06,27,12,35,25.50
2015,06,27,12,36,25.50
2015,06,27,12,37,25.50
2015,06,27,12,38,25.50
2015,06,27,12,39,25.60
2015,06,27,12,40,25.60
2015,06,27,12,41,25.60
2015,06,27,12,42,25.60
2015,06,27,12,43,25.70
2015,06,27,12,44,25.70
2015,06,27,12,45,25.70
2015,06,27,12,46,25.70
2015,06,27,12,47,25.80
2015,06,27,12,48,25.80
2015,06,27,12,49,25.70
2015,06,27,12,50,25.70
2015,06,27,12,51,25.70
2015,06,27,12,52,25.60
2015,06,27,12,53,25.60
2015,06,27,12,54,25.60
2015,06,27,12,55,25.60
2015,06,27,12,56,25.70
2015,06,27,12,57,25.70
2015,06,27,12,58,25.70
2015,06,27,12,59,25.70
2015,06,27,13,00,25.70
2015,06,27,13,01,25.80
2015,06,27,13,02,25.80
2015,06,27,13,03,25.70
2015,06,27,13,04,25.70
2015,06,27,13,05,25.70
2015,06,27,13,06,25.70
2015,06,27,13,07,25.70
2015,06,27,13,08,25.70
2015,06,27,13,09,25.70
2015,06,27,13,10,25.80
2015,06,27,13,11,25.80
2015,06,27,13,12,25.90
2015,06,27,13,13,26.00
2015,06,27,13,14,26.00
2015,06,27,13,15,25.90
2015,06,27,13,16,25.90
2015,06,27,13,17,25.90
2015,06,27,13,18,26.00
2015,06,27,13,19,26.00
2015,06,27,13,20,26.00
2015,06,27,13,21,26.10
2015,06,27,13,22,26.10
2015,06,27,13,23,26.20
2015,06,27,13,24,26.20
2015,06,27,13,25,26.30
2015,06,27,13,26,26.30
2015,06,27,13,27,26.40
2015,06,27,13,28,26.50
2015,06,27,13,29,26.50
2015,06,27,13,30,26.50
2015,06,27,13,31,26.50
2015,06,27,13,32,26.50
2015,06,27,13,33,26.50
2015,06,27,13,34,26.40
2015,06,27,13,35,26.40
2015,06,27,13,36,26.40
2015,06,27,13,37,26.40
2015,06,27,13,38,26.30
2015,06,27,13,39,26.30
2015,06,27,13,40,26.20
2015,06,27,13,41,26.30
2015,06,27,13,42,26.30
2015,06,27,13,43,26.40
2015,06,27,13,44,26.50
2015,06,27,13,45,26.60
2015,06,27,13,46,26.70
2015,06,27,13,47,26.80
2015,06,27,13,48,26.80
2015,06,27,13,49,26.90
2015,06,27,13,50,27.00
2015,06,27,13,51,27.10
2015,06,27,13,52,27.10
2015,06,27,13,53,27.20
2015,06,27,13,54,27.20
2015,06,27,13,55,27.20
2015,06,27,13,56,27.30
2015,06,27,13,57,27.40
2015,06,27,13,58,27.50
2015,06,27,13,59,27.60
2015,06,27,14,00,27.70
2015,06,27,14,01,27.80
2015,06,27,14,02,27.90
2015,06,27,14,03,28.00
2015,06,27,14,04,28.00
2015,06,27,14,05,28.00
2015,06,27,14,06,28.10
2015,06,27,14,07,28.10
2015,06,27,14,08,28.10
2015,06,27,14,09,28.20
2015,06,27,14,10,28.20
2015,06,27,14,11,28.20
2015,06,27,14,12,28.20
2015,06,27,14,13,28.30
2015,06,27,14,14,28.30
2015,06,27,14,15,28.30
2015,06,27,14,16,28.40
2015,06,27,14,17,28.30
2015,06,27,14,18,28.40
2015,06,27,14,19,28.40
2015,06,27,14,20,28.30
2015,06,27,14,21,28.30
2015,06,27,14,22,28.30
2015,06,27,14,23,28.30
2015,06,27,14,24,28.20
2015,06,27,14,25,28.10
2015,06,27,14,26,28.00
2015,06,27,14,27,27.90
2015,06,27,14,28,27.80
2015,06,27,14,29,27.80
2015,06,27,14,30,27.70
2015,06,27,14,31,27.70
2015,06,27,14,32,27.80
2015,06,27,14,33,27.80
2015,06,27,14,34,27.80
2015,06,27,14,35,27.80
2015,06,27,14,36,27.80
2015,06,27,14,37,27.80
2015,06,27,14,38,27.80
2015,06,27,14,39,27.90
2015,06,27,14,40,27.90
2015,06,27,14,41,27.90
2015,06,27,14,42,27.90
2015,06,27,14,43,27.90
2015,06,27,14,44,27.90
2015,06,27,14,45,28.00
2015,06,27,14,46,27.90
2015,06,27,14,47,27.90
2015,06,27,14,48,27.90
2015,06,27,14,49,27.80
2015,06,27,14,50,27.80
2015,06,27,14,51,27.90
2015,06,27,14,52,27.80
2015,06,27,14,53,27.80
2015,06,27,14,54,27.60
2015,06,27,14,55,27.50
2015,06,27,14,56,27.40
2015,06,27,14,57,27.40
2015,06,27,14,58,27.40
2015,06,27,14,59,27.40
2015,06,27,15,00,27.50
2015,06,27,15,01,27.60
2015,06,27,15,02,27.60
2015,06,27,15,03,27.70
2015,06,27,15,04,27.70
2015,06,27,15,05,27.80
2015,06,27,15,06,27.80
2015,06,27,15,07,27.80
2015,06,27,15,08,27.80
2015,06,27,15,09,27.90
2015,06,27,15,10,27.90
2015,06,27,15,11,27.90
2015,06,27,15,12,28.00
2015,06,27,15,13,28.00
2015,06,27,15,14,28.10
2015,06,27,15,15,28.10
2015,06,27,15,16,28.20
2015,06,27,15,17,28.30
2015,06,27,15,18,28.40
2015,06,27,15,19,28.40
2015,06,27,15,20,28.40
2015,06,27,15,21,28.40
2015,06,27,15,22,28.30
2015,06,27,15,23,28.40
2015,06,27,15,24,28.40
2015,06,27,15,25,28.40
2015,06,27,15,26,28.40
2015,06,27,15,27,28.30
2015,06,27,15,28,28.20
2015,06,27,15,29,28.20
2015,06,27,15,30,28.20
2015,06,27,15,31,28.20
2015,06,27,15,32,28.20
2015,06,27,15,33,28.30
2015,06,27,15,34,28.40
2015,06,27,15,35,28.50
2015,06,27,15,36,28.70
2015,06,27,15,37,28.80
2015,06,27,15,38,28.90
2015,06,27,15,39,29.00
2015,06,27,15,40,29.10
2015,06,27,15,41,29.20
2015,06,27,15,42,29.40
2015,06,27,15,43,29.50
2015,06,27,15,44,29.60
2015,06,27,15,45,29.60
2015,06,27,15,46,29.60
2015,06,27,15,47,29.60
2015,06,27,15,48,29.50
2015,06,27,15,49,29.50
2015,06,27,15,50,29.40
2015,06,27,15,51,29.40
2015,06,27,15,52,29.30
2015,06,27,15,53,29.30
2015,06,27,15,54,29.20
2015,06,27,15,55,29.10
2015,06,27,15,56,29.00
2015,06,27,15,57,29.00
2015,06,27,15,58,28.90
2015,06,27,15,59,28.90
2015,06,27,16,00,28.80
2015,06,27,16,01,28.90
2015,06,27,16,02,29.00
2015,06,27,16,03,29.10
2015,06,27,16,04,29.20
2015,06,27,16,05,29.30
2015,06,27,16,06,29.30
2015,06,27,16,07,29.30
2015,06,27,16,08,29.30
2015,06,27,16,09,29.30
2015,06,27,16,10,29.30
2015,06,27,16,11,29.20
2015,06,27,16,12,29.20
2015,06,27,16,13,29.20
2015,06,27,16,14,29.30
2015,06,27,16,15,29.30
2015,06,27,16,16,29.40
2015,06,27,16,17,29.40
2015,06,27,16,18,29.40
2015,06,27,16,19,29.50
2015,06,27,16,20,29.50
2015,06,27,16,21,29.50
2015,06,27,16,22,29.50
2015,06,27,16,23,29.40
2015,06,27,16,24,29.50
2015,06,27,16,25,29.50
2015,06,27,16,26,29.60
2015,06,27,16,27,29.60
2015,06,27,16,28,29.60
2015,06,27,16,29,29.70
2015,06,27,16,30,29.70
2015,06,27,16,31,29.70
2015,06,27,16,32,29.80
2015,06,27,16,33,29.90
2015,06,27,16,34,29.90
2015,06,27,16,35,29.90
2015,06,27,16,36,30.00
2015,06,27,16,37,30.10
2015,06,27,16,38,30.20
2015,06,27,16,39,30.10
2015,06,27,16,40,30.10
2015,06,27,16,41,30.10
2015,06,27,16,42,30.10
2015,06,27,16,43,30.10
2015,06,27,16,44,30.10
2015,06,27,16,45,30.10
2015,06,27,16,46,30.20
2015,06,27,16,47,30.20
2015,06,27,16,48,30.20
2015,06,27,16,49,30.20
2015,06,27,16,50,30.20
2015,06,27,16,51,30.20
2015,06,27,16,52,30.30
2015,06,27,16,53,30.30
2015,06,27,16,54,30.40
2015,06,27,16,55,30.40
2015,06,27,16,56,30.30
2015,06,27,16,57,30.30
2015,06,27,16,58,30.30
2015,06,27,16,59,30.30
2015,06,27,17,00,30.30
2015,06,27,17,01,30.30
2015,06,27,17,02,30.30
2015,06,27,17,03,30.30
2015,06,27,17,04,30.30
2015,06,27,17,05,30.20
2015,06,27,17,06,30.20
2015,06,27,17,07,30.30
2015,06,27,17,08,30.40
2015,06,27,17,09,30.40
2015,06,27,17,10,30.40
2015,06,27,17,11,30.40
2015,06,27,17,12,30.50
2015,06,27,17,13,30.50
2015,06,27,17,14,30.50
2015,06,27,17,15,30.60
2015,06,27,17,16,30.60
2015,06,27,17,17,30.70
2015,06,27,17,18,30.70
2015,06,27,17,19,30.70